FW3137 Weather Reports


Display with metric or nautical units.
time (UTC)temp
F
wind
direction
speed
MPH
gust
MPH
rain 1hr
in
rain 24hr
in
rain mn
in
humidity
%
barometer
mb
20260502151216 58 0 5.0 8.0 0.00 0.00 0.00 35 1014.3
20260502150216 56 248 4.0 7.0 0.00 0.00 0.00 36 1014.5
20260502130216 47 0 2.0 5.0 0.00 0.00 0.00 44 1015.9
20260502123216 45 203 4.0 7.0 0.00 0.00 0.00 44 1016.2
20260502122216 45 248 3.0 6.0 0.00 0.00 0.00 44 1016.1
20260502121216 45 203 3.0 5.0 0.00 0.00 0.00 43 1016.3
20260502120216 44 180 5.0 8.0 0.00 0.00 0.00 43 1016.2
20260502115216 44 203 4.0 7.0 0.00 0.00 0.00 44 1016.4
20260502114216 44 203 3.0 6.0 0.00 0.00 0.00 44 1016.2
20260502113236 43 203 6.0 9.0 0.00 0.00 0.00 44 1016.3
20260502112216 43 225 3.0 5.0 0.00 0.00 0.00 45 1016.4
20260502111216 42 203 2.0 6.0 0.00 0.00 0.00 46 1016.4
20260502110216 42 203 3.0 7.0 0.00 0.00 0.00 46 1016.6
20260502105216 41 203 5.0 7.0 0.00 0.00 0.00 48 1016.6
20260502104236 39 180 4.0 8.0 0.00 0.00 0.00 50 1016.7
20260502103236 41 180 1.0 4.0 0.00 0.00 0.00 47 1017.0
20260502102216 41 158 3.0 5.0 0.00 0.00 0.00 48 1017.1
20260502101216 41 203 1.0 6.0 0.00 0.00 0.00 48 1017.3
20260502100236 41 248 2.0 5.0 0.00 0.00 0.00 48 1017.5
20260502091255 41 225 2.0 3.0 0.00 0.00 0.00 47 1017.7
20260502090215 41 203 2.0 5.0 0.00 0.00 0.00 47 1017.6
20260502071217 38 0.0 0.0 0.00 0.00 0.00 46 1018.3
20260502070217 38 0.0 0.0 0.00 0.00 0.00 45 1018.4
20260502065258 38 0.0 0.0 0.00 0.00 0.00 44 1018.5
20260502064217 38 0.0 0.0 0.00 0.00 0.00 44 1018.6
20260502063237 38 0.0 0.0 0.00 0.00 0.00 43 1018.7
20260502062217 38 0.0 0.0 0.00 0.00 0.00 43 1018.7
20260502061217 39 0.0 0.0 0.00 0.00 0.00 43 1018.8
20260502060217 38 0.0 0.0 0.00 0.00 0.00 43 1018.8
20260502055217 39 0.0 0.0 0.00 0.00 0.00 43 1018.8
20260502054217 39 0.0 0.0 0.00 0.00 0.00 42 1018.8
20260502053217 40 0.0 0.0 0.00 0.00 0.00 40 1018.9
20260502052217 40 0.0 0.0 0.00 0.00 0.00 40 1018.8
20260502051217 41 0.0 0.0 0.00 0.00 0.00 39 1018.8
20260502050217 41 0.0 0.0 0.00 0.00 0.00 38 1019.0
20260502045235 42 0.0 0.0 0.00 0.00 0.00 37 1018.9
20260502044237 42 0.0 0.0 0.00 0.00 0.00 37 1019.0
20260502043257 43 0.0 0.0 0.00 0.00 0.00 36 1019.0
20260502042217 42 0.0 1.0 0.00 0.00 0.00 35 1019.0
20260502041217 43 0.0 0.0 0.00 0.00 0.00 35 1019.0
20260502040237 43 0.0 0.0 0.00 0.00 0.00 35 1019.2
20260502035217 43 0.0 1.0 0.00 0.00 0.00 34 1019.2
20260502034217 44 0.0 0.0 0.00 0.00 0.00 33 1019.2
20260502033217 44 0.0 1.0 0.00 0.00 0.00 33 1019.1
20260502032217 45 0.0 0.0 0.00 0.00 0.00 32 1019.2
20260502031217 46 0.0 0.0 0.00 0.00 0.00 31 1019.2
20260502030237 47 0.0 0.0 0.00 0.00 0.00 29 1019.2
20260502025217 47 0.0 1.0 0.00 0.00 0.00 29 1019.2
20260502024237 48 0.0 0.0 0.00 0.00 0.00 33 1019.4
20260502023217 49 248 2.0 3.0 0.00 0.00 0.00 28 1019.2
20260502022217 49 0.0 0.0 0.00 0.00 0.00 27 1019.2
20260502021217 50 0.0 0.0 0.00 0.00 0.00 30 1019.1
20260502020217 51 0.0 0.0 0.00 0.00 0.00 23 1019.2
20260502015217 52 0.0 0.0 0.00 0.00 0.00 22 1019.3
20260502014217 53 0.0 0.0 0.00 0.00 0.00 21 1019.1
20260502013217 54 0.0 0.0 0.00 0.00 0.00 20 1019.2
20260502012217 54 315 2.0 3.0 0.00 0.00 0.00 19 1019.2
20260502011236 55 0.0 1.0 0.00 0.00 0.00 20 1019.0
20260502010217 55 315 2.0 3.0 0.00 0.00 0.00 21 1019.1
20260502005216 55 315 3.0 5.0 0.00 0.00 0.00 20 1019.1
20260502004216 56 338 3.0 6.0 0.00 0.00 0.00 17 1019.0
20260502003216 56 0 5.0 6.0 0.00 0.00 0.00 21 1019.1
20260502002217 56 0 5.0 6.0 0.00 0.00 0.00 16 1019.2
20260502001217 57 0 3.0 4.0 0.00 0.00 0.00 17 1019.1
20260502000218 57 0 4.0 9.0 0.00 0.00 0.00 17 1019.2
20260501235217 57 0 4.0 5.0 0.00 0.00 0.00 19 1019.3
20260501234216 57 0 4.0 5.0 0.00 0.00 0.00 17 1019.3
20260501233216 57 0 2.0 3.0 0.00 0.00 0.00 17 1019.4
20260501232216 57 0 5.0 6.0 0.00 0.00 0.00 17 1019.2
20260501231216 56 0 3.0 5.0 0.00 0.00 0.00 18 1019.4
20260501230216 56 0 4.0 5.0 0.00 0.00 0.00 19 1019.4
20260501225216 56 0 5.0 8.0 0.00 0.00 0.00 21 1019.5
20260501224216 56 0 2.0 3.0 0.00 0.00 0.00 18 1019.4
20260501223216 56 0 6.0 10.0 0.00 0.00 0.00 20 1019.4
20260501222217 56 0 5.0 6.0 0.00 0.00 0.00 20 1019.4
20260501221236 56 0 6.0 9.0 0.00 0.00 0.00 22 1019.5
20260501220236 56 0 2.0 6.0 0.00 0.00 0.00 21 1019.8
20260501215217 56 0 2.0 4.0 0.00 0.00 0.00 21 1019.8
20260501214216 56 0 3.0 5.0 0.00 0.00 0.00 22 1019.8
20260501213216 56 0 2.0 2.0 0.00 0.00 0.00 22 1019.9
20260501212216 56 0 6.0 9.0 0.00 0.00 0.00 25 1019.9
20260501211216 56 0 2.0 3.0 0.00 0.00 0.00 22 1020.0
20260501210216 55 315 1.0 2.0 0.00 0.00 0.00 23 1020.0
20260501205216 54 0 6.0 10.0 0.00 0.00 0.00 24 1020.1
20260501204216 55 0 9.0 12.0 0.00 0.00 0.00 25 1020.2
20260501203216 54 225 5.0 7.0 0.00 0.00 0.00 23 1020.3
20260501202216 54 68 1.0 2.0 0.00 0.00 0.00 29 1020.4
20260501201216 54 45 7.0 10.0 0.00 0.00 0.00 24 1020.6
20260501200236 55 270 6.0 8.0 0.00 0.00 0.00 25 1020.7
20260501195216 53 68 2.0 3.0 0.00 0.00 0.00 27 1020.7
20260501194216 52 0 8.0 12.0 0.00 0.00 0.00 29 1020.9
20260501193216 53 23 6.0 9.0 0.00 0.00 0.00 31 1020.8
20260501192216 53 293 3.0 4.0 0.00 0.00 0.00 27 1020.9
20260501191216 52 338 3.0 6.0 0.00 0.00 0.00 30 1021.0
20260501190216 52 0 5.0 8.0 0.00 0.00 0.00 29 1021.1
20260501185216 51 248 3.0 6.0 0.00 0.00 0.00 30 1021.1
20260501184216 52 315 6.0 10.0 0.00 0.00 0.00 30 1021.2
20260501183216 51 293 2.0 3.0 0.00 0.00 0.00 30 1021.3
20260501182236 50 45 2.0 3.0 0.00 0.00 0.00 33 1021.2
20260501181216 50 23 1.0 2.0 0.00 0.00 0.00 33 1021.3
20260501180216 50 0 4.0 8.0 0.00 0.00 0.00 34 1021.3
20260501175236 49 0 6.0 9.0 0.00 0.00 0.00 33 1021.6
20260501174215 49 23 1.0 3.0 0.00 0.00 0.00 33 1021.6
20260501173216 49 23 4.0 4.0 0.00 0.00 0.00 32 1021.8
20260501172216 49 315 2.0 4.0 0.00 0.00 0.00 32 1021.9
20260501171216 48 0 6.0 9.0 0.00 0.00 0.00 34 1021.8
20260501170216 48 23 2.0 3.0 0.00 0.00 0.00 36 1022.0
20260501165215 47 293 4.0 7.0 0.00 0.00 0.00 36 1021.9
20260501164216 47 293 6.0 8.0 0.00 0.00 0.00 36 1022.2
20260501163215 47 315 1.0 3.0 0.00 0.00 0.00 36 1022.2
20260501162215 46 315 1.0 3.0 0.00 0.00 0.00 36 1022.3
20260501161215 46 338 5.0 6.0 0.00 0.00 0.00 38 1022.2
20260501160236 45 0 3.0 5.0 0.00 0.00 0.00 38 1022.2
20260501155215 45 0 5.0 9.0 0.00 0.00 0.00 39 1022.3
20260501154216 45 0 3.0 5.0 0.00 0.00 0.00 39 1022.2
20260501153236 45 0 6.0 9.0 0.00 0.00 0.00 40 1022.3
20260501152235 44 0 5.0 8.0 0.00 0.00 0.00 42 1022.4